GFSGBSN_sfc_thetae_000.txt.gz
Theta_e
318 318 318 317 316 317 317 316 316 316 316 315 316 316 316 316 316 317 316 316 316 316 315 315 316 317 313 305 304 313 325 320 313 312 308 305 304 301 298 299 299 296 297 299 300 300 297
318 318 318 318 317 317 317 316 315 315 315 315 315 315 316 316 316 317 316 316 315 315 315 314 316 315 309 299 311 313 313 313 311 308 307 306 303 304 301 300 298 301 300 299 300 299 299
317 318 318 317 317 317 317 316 315 315 315 315 315 315 315 316 316 316 316 316 315 315 314 314 315 316 313 303 309 310 312 310 311 309 306 307 306 304 302 300 304 302 296 298 299 298 297
318 318 318 317 317 317 317 316 315 315 315 315 315 315 314 314 314 314 315 314 314 314 314 313 314 314 302 312 310 312 311 311 313 313 310 308 308 304 302 303 302 297 295 290 297 299 298
317 317 317 317 317 317 317 316 315 314 314 314 314 314 314 313 313 314 314 314 314 315 315 314 312 310 303 315 310 311 310 310 311 312 311 312 308 302 301 294 291 292 287 290 294 298 295
316 316 317 318 318 318 318 316 315 314 314 314 314 314 313 313 313 312 312 314 315 314 313 315 315 304 308 305 309 310 308 308 306 307 307 305 300 295 293 290 284 287 288 287 288 294 295
315 315 317 318 318 318 318 317 315 314 314 314 314 314 313 313 314 313 314 313 309 303 307 300 301 303 304 308 310 306 308 307 305 304 297 299 294 289 291 294 295 292 290 289 291 296 296
314 314 317 318 318 318 318 317 315 314 314 314 314 314 313 313 313 313 316 310 311 311 301 306 305 305 307 306 303 305 306 301 301 295 296 295 291 296 298 297 295 293 291 290 293 297 295
312 313 316 317 317 317 317 317 315 314 313 313 313 313 313 312 312 314 312 312 321 318 304 302 305 304 305 306 302 302 302 300 298 296 294 292 295 299 297 295 293 291 291 290 291 295 294
311 312 314 316 316 316 315 315 315 315 313 313 312 312 312 312 310 313 311 315 319 318 294 297 302 305 306 305 302 306 305 302 299 295 295 295 298 295 295 294 293 289 295 295 293 291 286
311 312 313 314 315 314 314 314 314 314 313 312 312 312 312 314 314 311 314 318 319 315 282 300 301 309 306 301 301 302 306 303 295 295 295 293 293 293 293 293 295 292 296 295 294 290 288
311 313 313 314 314 314 313 313 313 313 313 312 311 312 312 317 313 312 319 319 316 295 284 297 302 301 301 301 301 303 304 306 303 299 298 295 297 295 294 298 298 299 296 295 294 290 282
311 312 313 313 314 313 313 313 312 312 312 312 311 311 316 321 311 318 320 312 295 285 301 296 297 300 298 297 299 300 299 296 293 289 289 296 295 297 299 295 298 295 290 281 280 279 280
313 313 313 313 314 313 312 312 312 311 311 311 310 310 318 321 319 318 314 300 287 296 296 300 299 298 296 296 297 298 296 293 297 295 290 289 287 296 299 295 292 293 291 281 277 276 280
314 313 313 313 313 313 312 312 312 311 311 310 311 317 314 316 320 319 306 288 287 295 298 297 298 294 294 297 295 296 294 294 296 296 290 288 290 299 299 299 297 294 288 294 285 277 278
313 313 313 313 313 312 312 312 312 312 311 310 312 314 309 317 318 313 296 291 295 299 300 300 293 296 292 294 294 294 293 297 297 299 298 295 289 297 299 300 298 295 296 286 284 275 278
312 312 313 313 312 312 311 312 311 311 311 310 318 305 310 317 316 304 289 289 296 300 302 299 297 295 296 294 295 294 294 297 299 298 300 296 293 291 295 294 292 291 289 291 292 285 280
311 311 311 312 312 312 312 312 311 310 310 310 311 296 308 314 300 297 292 298 299 300 303 301 300 298 296 297 295 295 295 297 300 299 295 297 289 283 290 296 298 295 292 292 281 283 282
311 310 311 312 312 312 311 311 311 310 310 306 304 304 313 312 288 287 297 300 301 301 300 300 298 299 300 296 290 296 297 301 300 299 295 295 286 280 285 290 295 293 294 293 290 283 282
310 310 311 311 312 312 311 311 311 310 310 309 302 293 301 304 302 297 295 297 297 302 300 302 300 301 298 296 297 292 296 301 301 300 301 298 291 286 281 285 291 289 292 293 288 277 283
310 310 311 311 311 311 311 311 310 310 310 311 302 295 301 290 295 297 298 300 297 297 301 301 299 298 296 289 291 291 296 297 300 300 298 295 286 289 290 292 293 293 292 292 289 288 282
310 309 309 310 310 311 310 307 307 309 309 306 300 300 301 298 301 297 294 296 297 298 299 297 296 298 298 293 293 290 295 294 294 297 294 296 284 286 288 292 292 289 291 291 290 290 288
309 309 309 310 310 311 308 307 309 309 311 306 306 305 301 294 294 289 291 297 298 300 300 301 299 296 290 297 299 300 300 299 298 295 290 290 284 281 284 287 286 283 286 288 289 291 289
309 309 310 310 310 310 307 306 308 308 309 310 308 303 292 287 286 292 300 300 299 299 297 301 299 293 300 304 301 298 294 294 295 295 297 285 282 282 281 284 278 289 293 293 290 291 292
309 309 309 310 310 310 305 307 308 308 309 309 309 305 294 286 291 295 297 298 298 298 297 299 301 303 303 296 287 283 283 284 285 295 294 294 286 282 280 282 285 289 291 288 286 288 294
308 309 309 309 309 309 308 309 309 308 308 310 312 308 298 289 290 302 297 298 290 288 291 297 304 304 298 288 282 275 275 281 284 288 295 290 285 280 282 279 278 284 291 296 295 283 295
308 308 308 308 308 308 308 309 309 308 309 310 310 313 304 292 301 301 295 294 299 292 291 291 297 293 296 287 283 283 279 287 281 277 278 279 283 278 273 276 280 289 293 296 279 283 292
307 307 307 307 307 307 308 308 308 307 308 310 310 314 307 296 301 305 306 300 300 295 288 294 293 290 288 285 284 282 285 283 282 286 283 282 278 281 279 280 279 294 295 287 291 292 295
306 307 306 306 306 307 307 307 307 307 308 309 306 314 313 303 301 309 310 311 308 304 299 296 294 294 291 287 286 281 285 285 280 283 290 285 287 283 284 283 291 295 296 296 298 296 295

GFSGBSN_sfc_thetae_003.txt.gz
Theta_e
318 317 317 316 317 317 317 317 316 315 315 315 316 316 316 315 314 315 316 315 315 316 316 315 316 318 310 302 303 311 323 318 310 309 305 303 301 299 297 297 297 294 295 297 297 297 295
317 317 317 317 317 318 317 316 315 315 315 315 315 315 316 316 316 316 316 315 315 315 315 315 316 317 306 297 309 310 310 311 309 307 305 304 302 301 299 298 296 299 297 297 298 297 297
316 317 317 318 318 318 317 316 315 315 314 314 315 315 315 316 316 316 316 315 315 315 315 315 316 315 308 302 307 309 311 307 308 308 306 305 304 302 300 298 301 299 295 297 296 296 296
316 317 317 317 317 317 317 316 315 315 315 315 315 314 314 314 314 314 315 314 314 314 314 313 315 314 301 310 309 310 310 309 311 310 308 307 307 302 299 300 299 294 293 289 295 295 295
316 316 317 318 317 317 317 316 314 314 314 314 314 314 313 313 313 313 313 313 314 314 313 313 312 307 301 314 308 309 307 305 307 308 308 311 306 299 298 291 289 290 285 287 291 296 295
315 316 317 318 318 318 318 316 314 314 314 314 314 314 313 313 313 313 313 313 314 312 313 313 313 301 306 303 307 307 307 306 304 305 305 303 297 293 291 289 283 285 285 286 287 292 295
314 315 317 318 318 318 318 317 315 314 314 314 314 314 313 313 313 312 311 309 307 302 307 298 299 301 302 306 307 305 305 305 304 301 295 297 292 288 289 291 293 291 288 288 290 294 295
313 314 317 318 318 317 318 317 315 314 314 313 313 313 313 313 312 313 313 310 308 308 298 305 302 302 305 304 301 303 305 300 299 293 294 294 290 294 296 295 293 292 289 288 292 295 293
312 313 315 317 317 317 316 316 315 314 313 313 313 313 313 312 312 313 312 313 320 314 298 300 303 302 303 304 299 301 301 299 297 294 293 291 293 297 295 292 291 289 289 288 290 293 292
311 311 314 316 316 316 315 315 315 314 313 312 312 312 312 314 314 311 309 313 316 312 291 296 300 303 304 303 300 303 303 300 298 292 293 293 295 294 293 292 291 287 292 292 292 290 285
310 311 313 314 315 314 313 313 313 313 313 312 311 312 312 316 312 308 313 317 318 310 279 298 299 307 303 299 298 302 306 301 295 295 293 292 291 292 292 292 294 292 295 293 292 289 287
310 311 313 314 314 313 313 313 312 312 312 312 311 312 312 317 310 311 317 314 313 292 282 295 300 299 298 300 299 303 303 304 302 297 297 294 295 294 293 296 296 297 294 292 291 288 282
311 312 313 313 314 313 313 312 312 312 312 311 311 311 316 319 308 315 316 309 293 283 299 294 295 298 296 295 297 298 297 295 292 287 288 295 295 297 298 294 297 294 289 280 279 278 279
312 312 312 313 313 313 312 312 312 311 311 311 310 312 317 318 317 316 310 298 285 294 293 298 297 296 293 295 295 297 295 292 295 293 289 288 285 295 299 294 291 291 289 280 276 275 279
313 313 312 313 313 312 312 312 312 311 311 310 312 317 311 313 317 316 302 286 286 292 295 295 296 293 293 296 294 294 293 292 294 295 289 287 289 297 298 298 295 292 287 292 283 276 277
313 313 313 313 312 312 311 311 311 311 311 311 313 309 306 315 316 306 293 290 293 297 298 298 291 294 290 294 293 292 292 295 295 298 296 293 287 295 297 298 297 294 294 285 283 274 276
311 312 313 313 312 311 311 311 311 311 310 310 316 300 307 316 311 299 287 287 295 299 300 297 295 294 294 292 293 292 293 296 297 297 298 293 291 289 293 292 290 290 288 289 289 284 278
310 311 312 312 312 311 311 311 311 310 310 313 306 295 307 310 299 293 291 295 298 299 302 300 299 297 295 294 293 293 293 296 298 298 293 294 288 282 288 294 296 294 291 289 283 281 281
310 310 311 312 312 311 311 311 310 310 310 308 303 302 309 306 289 285 296 298 299 298 298 298 296 298 298 294 289 294 295 299 299 297 293 294 285 280 284 289 291 290 292 291 287 282 281
309 310 310 311 311 311 311 310 310 310 310 309 300 292 300 301 298 295 294 295 295 300 299 299 298 299 296 294 295 291 294 299 300 299 300 297 289 284 280 284 289 288 290 291 288 276 281
309 309 309 310 311 311 310 307 307 309 309 309 299 294 299 289 293 296 296 297 295 295 298 299 297 296 294 288 289 290 294 296 298 299 297 294 286 287 288 290 291 291 290 291 288 287 284
309 309 309 309 311 310 306 306 308 309 310 304 300 298 298 297 298 294 292 294 296 296 297 295 295 296 296 292 292 289 293 293 293 295 293 294 283 285 285 290 290 288 290 289 290 289 287
309 309 308 309 311 310 306 305 308 309 310 304 303 302 299 291 290 288 289 295 296 298 298 299 298 294 288 296 298 298 298 298 296 293 289 289 283 281 278 286 284 280 284 287 288 288 288
309 309 309 310 310 309 305 305 307 308 309 308 304 299 292 286 284 291 297 297 296 296 296 298 297 291 297 302 298 296 293 292 292 293 295 285 282 281 277 284 275 288 291 291 289 290 290
308 309 309 310 310 310 304 306 308 307 309 309 306 301 293 286 290 293 296 296 296 297 295 297 299 300 300 294 286 282 282 283 283 294 291 290 286 283 282 281 283 288 290 287 286 286 292
308 308 309 309 309 309 308 309 308 307 308 310 308 302 297 289 290 299 296 296 288 287 289 295 302 301 296 284 282 276 275 280 283 286 292 288 283 280 281 279 278 285 289 292 293 283 293
308 308 308 308 308 308 308 309 308 307 308 309 309 307 302 290 297 300 293 292 296 290 290 289 294 291 294 286 283 276 279 286 280 276 278 279 282 280 281 279 280 288 291 293 282 284 292
307 307 307 307 307 307 308 308 308 308 308 309 308 310 305 294 298 302 303 298 297 293 287 293 292 289 288 285 281 281 274 282 281 284 282 282 280 277 280 278 277 292 294 287 292 293 293
307 307 306 306 306 306 307 308 308 307 308 309 306 310 309 302 300 307 309 307 305 302 297 293 293 292 290 287 286 281 281 284 280 283 288 284 287 282 285 284 291 293 296 297 297 294 292

GFSGBSN_sfc_thetae_006.txt.gz
Theta_e
317 316 317 317 318 318 318 317 316 316 315 315 316 316 315 314 314 313 314 314 315 316 316 316 317 317 310 300 301 309 322 318 309 308 304 302 300 298 295 296 296 294 293 295 296 296 294
316 316 317 318 318 318 318 317 315 315 315 315 315 315 315 315 314 314 314 315 315 315 315 316 316 317 304 297 307 308 309 309 307 305 304 303 300 299 298 296 295 297 295 295 296 296 295
316 316 318 318 318 317 317 316 315 315 314 314 314 315 315 315 316 316 316 315 315 315 315 316 316 314 302 301 305 307 310 305 306 306 304 303 302 300 298 296 300 297 294 295 296 295 294
315 316 317 318 317 317 317 315 315 315 314 314 315 314 314 314 315 315 315 314 314 315 315 315 316 311 299 309 308 309 307 305 306 307 306 306 305 301 298 298 296 292 291 288 294 294 294
316 316 318 318 317 317 317 316 314 314 314 314 314 313 313 313 313 313 313 313 314 314 315 314 310 306 298 313 307 307 305 303 305 306 307 308 303 297 296 290 288 288 284 286 290 295 295
315 316 318 318 318 318 318 316 315 314 314 314 314 314 313 313 313 312 312 313 314 312 312 311 310 299 304 301 305 306 304 305 303 303 303 300 295 291 291 288 282 285 284 284 285 292 294
313 314 317 318 318 318 318 316 315 314 314 314 314 314 313 312 313 312 310 308 303 301 305 297 297 299 300 304 305 304 303 303 302 299 293 296 291 287 288 290 291 289 287 286 289 292 293
313 313 316 317 317 317 317 316 315 313 314 314 313 313 313 313 313 312 309 308 305 307 296 302 301 301 303 302 300 303 304 299 298 292 293 293 288 292 294 293 291 290 287 286 290 293 292
312 312 315 316 317 317 316 316 314 314 313 313 313 313 313 312 312 311 311 311 318 311 295 299 301 300 301 303 298 300 301 298 295 292 292 290 291 295 293 291 291 289 287 286 288 291 291
311 310 313 315 316 316 314 314 314 314 313 312 312 312 312 313 312 309 307 312 316 306 290 294 299 301 302 301 297 301 303 299 296 291 292 292 293 293 293 291 290 287 291 291 290 288 284
311 310 312 314 315 314 313 313 313 313 313 312 311 312 313 314 312 307 311 316 316 306 278 296 298 305 302 298 297 302 305 300 294 294 293 289 290 292 292 291 292 291 294 291 290 287 286
311 311 312 313 313 313 313 313 312 312 312 312 311 312 312 314 309 309 315 312 311 289 281 294 298 297 297 298 299 301 301 302 299 296 296 293 295 293 292 294 294 296 292 290 289 287 281
311 312 312 313 313 313 313 312 312 311 311 311 311 314 316 316 305 313 312 307 290 282 297 292 293 296 294 294 297 297 295 293 291 286 287 293 293 296 296 293 296 293 286 279 278 277 278
312 312 312 312 313 313 312 312 311 311 311 311 311 314 315 316 314 314 307 297 284 291 291 296 294 295 292 293 294 295 293 291 294 292 288 286 283 293 297 292 289 290 288 279 275 274 278
312 313 312 312 313 312 312 311 311 311 310 310 313 312 308 312 315 310 301 285 285 290 293 294 295 291 291 295 293 293 291 291 293 293 287 286 287 296 296 296 294 290 286 290 282 275 276
312 312 312 312 312 312 311 311 311 311 311 311 314 304 306 313 313 303 293 289 291 296 296 296 290 292 288 292 291 291 290 294 293 296 295 291 286 292 295 296 296 293 293 284 282 273 275
311 311 311 311 311 311 311 311 311 311 310 311 311 298 306 313 307 297 286 286 293 298 299 296 293 292 293 291 292 290 291 294 295 295 296 292 289 287 291 290 288 290 287 287 287 283 275
310 310 310 310 311 311 311 311 310 310 310 311 301 294 307 308 296 291 289 294 298 297 300 298 297 295 293 293 292 292 291 294 297 296 292 293 287 281 286 292 294 291 289 287 279 279 280
309 310 310 311 311 310 310 310 309 309 310 307 301 300 307 305 288 284 294 296 297 297 297 296 295 297 297 292 288 292 294 297 298 296 292 292 285 279 282 287 290 289 290 289 285 282 281
309 309 310 310 310 311 310 306 307 309 310 305 299 293 299 300 296 294 292 293 294 299 297 298 296 297 295 292 294 291 292 297 299 297 299 296 287 283 279 283 286 285 289 289 287 282 281
309 309 309 309 309 310 306 306 308 309 309 306 298 294 297 289 292 295 295 294 294 293 297 298 295 295 293 287 289 289 293 295 296 298 295 293 285 286 287 289 288 289 288 289 286 286 284
309 309 308 307 308 309 305 305 308 308 309 303 299 297 297 295 296 293 291 292 295 294 295 294 294 295 295 290 291 288 292 291 291 294 290 291 283 284 283 287 287 285 288 288 288 288 287
309 309 307 307 309 308 306 305 306 308 309 303 300 299 299 290 289 288 288 294 295 297 296 297 297 293 288 295 297 297 297 296 294 291 289 288 282 281 277 284 283 279 283 286 287 288 287
308 309 308 309 310 309 305 305 307 308 308 305 302 298 292 286 283 290 295 295 295 295 294 296 296 290 295 300 297 294 291 289 290 292 294 284 281 281 277 284 276 286 290 290 288 288 289
308 308 309 309 310 310 305 307 307 307 309 308 303 299 292 285 288 291 295 295 295 295 294 295 299 298 298 293 285 281 282 281 282 291 289 289 285 281 282 281 283 288 289 286 285 285 289
308 308 308 309 308 308 309 308 307 307 309 309 305 300 296 289 290 296 295 294 287 286 287 293 299 299 295 283 281 275 275 281 283 285 289 288 282 279 281 279 277 285 288 291 292 281 290
307 308 308 308 308 308 308 309 307 307 308 310 307 304 300 289 295 297 291 292 293 289 289 287 293 290 292 282 281 276 278 284 280 276 276 280 282 284 284 280 281 288 290 293 282 284 292
307 307 307 307 307 307 307 309 308 307 308 309 306 307 303 292 296 301 301 297 295 292 287 292 291 288 288 285 281 282 273 281 281 284 281 280 277 275 279 279 276 290 291 286 291 294 295
306 307 306 306 306 306 307 307 307 307 307 308 305 307 306 299 298 302 304 304 301 300 295 291 292 290 289 286 285 281 279 281 282 282 286 282 285 284 286 283 290 293 295 296 296 295 293

GFSGBSN_sfc_thetae_009.txt.gz
Theta_e
317 316 317 318 318 318 318 318 317 316 315 315 315 316 315 315 314 314 313 312 313 315 316 317 317 317 313 306 307 312 321 317 313 311 306 306 305 303 300 301 302 299 299 300 301 299 300
316 316 317 318 318 318 318 316 316 315 315 315 315 315 315 315 314 314 313 313 313 315 316 316 317 317 311 302 311 311 310 311 311 311 308 308 305 305 303 301 301 302 301 300 301 301 301
316 316 318 318 318 318 316 316 315 315 315 314 314 314 315 315 315 314 314 314 315 315 315 316 317 315 308 307 311 310 310 311 310 312 309 308 308 306 304 302 303 301 298 299 299 299 300
315 316 318 318 317 317 316 316 315 315 315 314 314 314 314 314 315 315 315 314 314 315 315 316 316 313 306 312 313 310 310 310 310 311 311 311 309 305 303 303 300 297 297 295 298 300 300
316 316 318 318 317 317 316 316 315 314 314 314 314 314 313 313 313 313 313 313 314 315 315 315 314 312 306 314 309 310 309 307 308 311 310 308 307 301 301 297 295 295 291 292 295 299 300
314 316 317 318 317 317 317 316 315 314 314 313 313 314 313 313 313 312 312 313 314 314 313 313 309 306 306 303 307 307 309 309 307 310 307 305 300 298 297 295 289 291 291 293 292 297 300
313 314 316 318 317 318 318 316 315 314 313 314 314 314 313 312 313 312 312 312 305 305 307 302 303 301 302 306 307 306 306 308 306 303 299 300 297 293 295 296 295 294 292 292 295 297 298
312 313 315 317 317 317 317 316 314 313 314 314 314 314 314 313 312 312 312 311 308 312 300 304 303 303 305 306 302 305 308 303 302 296 298 298 293 296 296 296 295 294 292 292 295 296 297
312 311 315 316 317 317 316 315 314 314 313 313 313 313 313 312 312 313 315 316 320 315 299 301 304 303 304 305 301 302 305 304 298 296 295 294 295 297 296 295 295 294 292 292 292 295 296
311 310 313 315 316 315 315 314 314 314 313 312 312 312 312 312 311 313 312 316 318 314 293 296 300 303 305 304 300 306 306 303 300 295 297 295 297 297 296 294 295 292 295 295 293 293 291
311 311 312 313 314 313 313 313 313 313 313 312 312 312 312 313 313 311 314 317 321 309 282 297 301 307 304 300 301 304 307 305 298 296 298 293 296 296 295 295 297 295 297 295 294 293 292
311 311 312 313 313 313 313 312 312 312 312 312 311 313 313 313 313 315 318 317 313 292 282 296 300 299 299 300 301 303 302 305 303 299 299 296 300 298 297 298 298 298 296 293 293 292 288
311 312 312 312 313 313 313 312 312 311 311 311 312 314 316 314 308 316 315 309 293 285 297 294 295 298 296 296 298 299 297 296 294 291 291 296 296 300 299 297 299 298 292 287 287 287 286
312 312 312 312 313 312 312 312 311 311 311 311 312 313 313 315 316 315 310 299 287 292 294 298 297 297 294 296 296 297 296 294 298 295 292 290 289 296 300 297 294 294 293 287 280 283 285
312 312 312 312 312 312 312 311 311 311 310 310 313 310 310 314 316 311 303 289 288 292 296 296 297 294 294 297 296 295 294 294 296 297 292 290 290 298 299 299 298 294 291 293 286 279 285
312 311 312 311 312 311 311 311 311 311 310 311 311 306 309 313 314 305 296 290 294 297 298 298 293 295 292 294 294 294 294 297 296 298 299 295 290 295 297 299 299 297 297 289 289 282 280
311 311 311 311 311 311 311 311 310 310 310 311 307 303 309 314 308 299 290 290 296 300 301 298 296 295 295 294 294 293 293 296 298 298 299 295 293 291 294 294 293 294 292 291 291 288 284
310 310 310 310 310 311 310 310 309 309 310 309 302 299 310 311 298 293 292 296 298 299 301 300 299 298 296 296 294 294 294 296 299 300 295 296 291 287 290 295 297 295 292 291 286 283 286
309 309 309 310 310 310 309 306 307 309 310 308 302 303 308 307 291 288 297 298 298 299 298 298 298 299 298 295 292 296 296 300 300 300 297 297 290 284 285 291 294 293 294 291 289 288 285
309 309 309 310 310 310 306 307 307 309 310 305 300 296 300 300 298 296 295 295 296 299 298 299 298 299 297 294 296 294 295 300 301 300 299 298 290 287 283 286 290 288 291 292 292 286 286
309 309 309 308 306 308 306 306 306 308 309 306 300 297 299 292 295 296 297 297 295 294 299 299 297 297 295 290 293 293 296 297 298 299 298 297 290 290 290 291 291 290 290 291 289 291 286
309 309 308 307 306 306 306 306 306 308 308 304 300 298 298 295 297 296 292 296 296 296 297 297 296 298 297 293 293 292 296 295 295 297 296 294 289 289 286 289 288 286 290 290 291 291 290
309 309 307 306 308 306 306 306 307 308 308 304 302 301 300 290 291 292 292 296 296 298 298 299 298 295 291 297 300 301 300 298 298 296 293 292 289 285 283 286 286 283 286 289 290 292 291
308 309 308 308 309 308 305 306 307 308 308 307 303 299 295 289 288 292 296 297 296 297 296 298 299 294 299 302 300 296 292 292 294 295 296 287 286 285 284 285 279 290 293 293 291 292 293
308 308 309 309 309 309 308 307 307 308 309 307 303 300 294 286 290 293 296 296 297 297 296 298 300 299 300 296 290 286 286 284 286 291 292 292 288 284 282 283 286 290 292 291 289 289 293
307 308 308 308 308 308 308 308 307 307 309 310 306 301 298 289 292 297 296 296 291 291 292 296 301 300 297 288 287 282 282 283 286 287 290 290 287 287 284 281 279 289 291 294 294 286 295
307 307 308 308 307 308 308 308 307 307 308 311 308 305 301 292 297 299 295 295 296 293 292 292 297 294 296 287 285 285 286 286 284 280 280 283 284 283 284 282 286 291 293 294 285 287 294
306 307 307 307 307 307 308 308 307 307 308 311 308 308 304 294 299 303 302 297 297 295 292 295 294 292 290 286 286 286 284 286 286 287 284 285 284 281 282 281 279 293 293 290 295 297 296
306 306 306 306 306 306 307 308 307 307 307 309 307 307 306 301 300 305 308 307 305 302 297 293 296 293 294 288 286 285 284 282 284 285 289 285 289 287 287 287 293 295 297 299 297 296 294

GFSGBSN_sfc_thetae_012.txt.gz
Theta_e
318 317 317 318 319 319 318 317 317 317 316 316 316 316 316 316 316 315 314 314 313 314 315 316 317 318 319 312 310 318 323 323 319 316 314 313 309 308 303 305 306 304 304 305 305 305 305
317 317 317 318 318 318 317 316 316 316 315 315 315 315 316 315 315 315 314 313 313 313 316 317 318 317 316 305 317 318 317 317 318 317 315 314 311 311 308 306 305 306 306 305 306 305 306
317 316 318 319 318 318 316 315 316 315 315 315 315 315 315 316 315 314 314 313 312 315 316 317 317 320 313 309 318 318 315 316 316 316 314 314 314 311 311 307 308 307 303 305 305 305 304
316 316 318 318 318 317 316 316 316 315 315 315 315 315 314 315 315 315 315 315 315 315 316 316 316 320 309 317 320 316 316 314 316 317 317 316 316 311 309 309 306 304 304 299 304 305 306
316 316 318 318 317 317 316 316 315 314 314 314 314 314 314 313 314 314 314 314 314 315 316 316 321 317 307 318 313 316 315 312 314 316 315 313 313 309 307 305 301 302 297 297 300 305 305
315 315 318 318 318 317 317 316 315 314 314 314 314 314 314 313 313 313 313 314 315 315 316 318 315 310 310 307 312 312 314 314 312 313 312 310 311 306 306 302 295 296 296 298 297 302 303
313 314 316 318 318 318 317 316 315 314 314 314 315 314 313 313 313 312 315 321 314 312 313 307 307 306 308 312 313 312 312 312 312 310 304 307 304 300 301 302 301 299 297 297 299 302 302
313 313 315 317 318 317 317 316 315 314 314 314 314 315 314 313 313 313 321 317 315 316 305 309 308 308 309 311 307 312 315 308 307 302 305 303 299 301 302 302 299 299 297 297 300 301 302
312 312 314 316 316 316 316 315 314 314 314 313 313 314 314 313 312 319 325 321 327 322 306 306 308 308 308 312 307 308 312 308 305 302 302 300 299 301 301 301 300 299 297 297 297 301 302
312 311 313 315 316 315 315 315 314 314 313 313 313 313 313 312 315 323 319 323 328 321 302 300 304 307 309 308 305 312 312 307 304 301 302 300 302 301 301 299 301 296 300 300 298 298 295
312 311 313 314 314 313 313 313 313 313 313 313 312 313 312 314 324 318 321 327 330 322 291 301 304 312 311 306 305 308 312 309 302 301 302 297 300 300 299 299 302 299 302 300 299 299 298
312 312 313 313 313 313 313 312 312 312 312 312 312 314 313 320 328 323 328 327 326 304 288 299 304 303 305 306 305 308 308 311 307 304 304 301 305 304 302 302 302 303 300 300 301 300 293
312 312 312 313 313 313 312 312 312 311 312 312 313 314 321 324 319 328 328 322 301 295 301 297 299 303 303 301 303 304 303 302 300 296 297 300 301 304 305 301 304 303 298 294 292 292 291
312 312 312 313 313 312 312 312 311 311 311 312 312 315 317 324 329 328 324 312 293 297 297 301 301 302 299 301 301 302 301 300 303 301 298 295 293 301 304 301 299 299 299 293 284 288 291
312 312 312 312 312 312 312 311 311 311 311 311 313 324 325 326 328 326 315 303 297 299 301 300 301 298 298 300 301 301 300 299 301 303 297 296 294 302 302 303 302 298 296 299 292 287 290
312 312 311 311 311 311 311 311 310 310 310 312 321 321 321 325 325 322 312 296 299 301 303 302 296 299 296 298 298 299 299 301 300 303 304 299 293 299 301 303 304 301 301 294 296 286 282
311 311 311 311 311 311 311 310 308 310 310 311 321 312 320 325 321 314 304 300 301 304 305 302 300 298 299 298 299 298 297 300 302 302 304 300 297 295 299 298 297 299 298 296 296 294 287
310 310 310 310 311 310 310 307 308 310 310 317 318 308 320 323 309 307 303 302 301 304 306 304 305 302 300 300 299 298 298 300 304 304 298 301 298 292 293 299 302 300 297 296 291 285 291
310 310 310 310 310 310 306 307 308 309 310 321 315 314 320 319 305 304 303 302 303 303 302 303 302 304 304 300 297 300 300 303 304 303 301 302 296 289 291 296 299 297 298 297 295 293 289
309 310 310 310 309 307 306 307 307 309 310 320 315 309 313 313 309 306 303 301 300 304 303 304 302 304 303 300 302 299 300 302 304 304 299 302 297 292 288 290 294 292 294 296 295 290 290
309 310 309 306 306 306 306 307 308 309 309 319 314 309 308 305 305 306 305 303 301 299 304 305 302 302 301 298 298 298 301 301 302 300 304 303 292 295 295 296 295 294 293 294 293 294 289
309 309 308 306 306 306 306 307 308 308 309 316 312 309 309 305 305 305 301 302 301 300 302 300 301 302 302 298 298 297 298 298 297 302 301 301 293 293 290 294 294 292 294 294 294 295 295
309 309 306 306 308 306 306 306 308 308 311 317 313 311 314 297 302 305 303 303 302 305 303 305 305 302 299 302 305 306 306 305 302 300 298 297 295 291 288 291 291 288 292 293 294 296 295
309 308 306 308 310 306 306 308 307 308 311 320 315 313 312 302 304 303 303 304 303 303 303 304 305 303 304 308 307 305 302 301 302 300 302 293 294 290 288 288 283 293 298 297 295 296 298
308 308 309 310 310 309 308 308 307 308 310 317 314 313 308 291 304 301 304 303 304 305 303 303 304 305 310 306 300 293 293 291 293 296 297 299 295 287 285 285 290 292 295 294 292 293 298
307 308 309 309 309 309 308 307 307 307 309 318 314 312 311 295 303 304 304 305 303 303 303 302 305 307 307 303 297 288 290 289 290 292 294 295 295 294 287 283 282 293 296 298 298 290 299
307 307 308 308 309 309 308 308 307 307 309 320 317 315 314 308 305 306 305 304 306 305 304 304 304 302 305 297 291 292 292 292 289 288 287 287 287 287 287 285 289 297 297 299 287 291 300
306 306 307 307 308 308 308 308 307 307 308 318 316 317 315 307 307 308 307 305 305 307 304 304 303 302 300 289 290 292 289 294 291 293 291 290 289 286 287 283 282 298 297 291 298 300 297
306 306 306 307 307 307 308 308 308 307 307 312 317 316 315 314 310 313 313 312 311 310 308 306 304 303 306 298 293 291 287 287 292 289 296 290 294 292 291 293 300 302 301 303 302 300 295

GFSGBSN_sfc_thetae_015.txt.gz
Theta_e
317 318 318 318 319 319 319 319 318 317 317 317 317 317 317 317 317 316 315 315 315 314 314 315 318 319 322 315 311 320 324 325 324 319 316 313 310 308 304 305 305 304 304 305 306 305 306
317 317 317 318 319 319 319 318 316 316 317 316 316 316 316 317 316 316 315 314 314 313 314 317 318 318 321 308 319 320 319 319 320 318 314 314 311 311 307 306 306 308 307 307 307 307 307
317 317 317 319 319 319 318 316 317 316 316 316 316 316 316 316 315 315 315 314 313 313 315 317 318 321 319 311 320 320 319 318 319 319 314 316 315 311 311 307 310 309 304 307 307 308 306
316 316 316 319 318 318 317 316 317 316 316 316 315 315 315 316 316 315 314 313 314 316 317 317 318 323 311 319 322 317 318 316 319 320 318 318 317 314 312 313 308 305 306 301 306 307 308
316 315 316 319 318 318 317 317 316 315 315 315 315 316 315 315 315 315 315 315 315 316 316 318 322 323 308 316 314 316 317 313 316 319 318 316 316 311 311 306 303 304 300 300 302 307 307
316 314 316 318 318 318 318 317 315 314 314 314 314 315 315 314 314 314 314 314 315 316 317 321 321 312 311 309 313 314 317 317 315 315 313 312 311 307 307 304 297 298 298 300 299 304 304
315 313 315 317 318 318 318 316 315 314 314 314 314 315 315 314 314 313 314 321 316 315 316 310 309 308 309 313 316 313 316 315 315 313 307 309 305 303 303 304 303 301 299 299 302 304 302
314 313 314 316 317 317 317 316 315 314 314 314 314 315 314 314 314 314 323 319 319 319 306 311 311 312 313 314 308 312 317 310 309 305 307 304 302 304 305 304 302 301 299 299 302 303 303
314 312 314 316 317 316 316 316 315 314 314 314 314 315 315 314 313 320 326 323 328 325 307 307 310 310 310 313 308 309 314 310 306 303 303 302 303 304 303 302 301 302 300 300 299 303 305
314 311 313 315 316 315 315 315 314 314 314 314 314 315 314 312 315 327 322 327 332 327 303 301 305 309 310 311 306 314 314 310 306 302 303 303 305 303 302 301 303 299 303 302 301 300 296
313 312 313 314 315 314 313 313 313 313 314 314 313 315 312 313 325 320 324 332 335 329 292 303 305 315 311 308 309 309 315 311 303 303 304 301 302 302 301 301 304 301 305 302 302 301 300
312 312 313 314 314 313 313 313 312 313 313 313 314 315 313 320 331 327 331 333 331 306 291 300 306 306 306 308 307 310 310 313 311 304 306 304 307 306 304 305 304 306 304 303 303 301 294
312 313 313 314 314 313 313 312 312 312 313 314 315 315 316 329 321 333 334 326 301 297 303 299 301 305 305 304 305 306 305 305 303 299 299 302 303 306 307 304 306 305 301 295 293 293 293
313 313 313 314 314 313 312 312 311 311 313 314 314 316 322 330 333 334 328 310 297 299 300 304 304 304 301 304 303 304 303 302 305 304 301 298 296 302 305 303 301 301 301 295 286 289 292
312 313 313 313 313 313 312 311 311 311 312 314 314 330 329 332 335 332 315 303 300 300 303 302 303 300 300 302 303 303 303 301 303 305 300 298 297 304 305 306 305 301 298 301 295 293 292
312 312 312 312 312 312 311 310 308 311 312 314 322 320 322 332 334 327 313 301 302 305 305 305 299 302 298 300 301 302 301 303 302 304 307 301 296 301 303 306 306 303 303 296 298 286 283
312 311 312 312 312 311 310 308 308 310 311 314 322 312 326 334 329 316 306 303 303 307 307 304 301 300 302 300 302 300 300 303 304 304 305 302 299 298 301 300 299 301 300 298 297 295 288
311 311 311 311 311 310 308 308 308 310 311 313 321 309 327 330 310 313 306 305 303 306 309 307 307 305 303 303 301 301 300 303 306 306 301 303 300 294 295 302 304 302 299 298 292 289 293
310 310 311 311 311 308 307 308 307 309 310 327 314 315 326 325 307 310 307 305 307 306 306 306 304 306 307 304 299 302 303 306 307 306 303 303 299 291 293 299 302 298 299 298 296 295 289
310 310 310 310 307 307 308 308 308 309 311 323 316 311 315 317 315 308 305 304 303 308 306 307 306 308 306 303 305 302 302 305 307 306 300 303 299 293 290 293 296 294 296 297 296 291 291
310 310 309 307 307 307 308 308 308 309 310 323 319 313 313 307 309 310 309 306 303 301 307 308 305 305 304 300 302 301 304 304 304 300 304 304 294 297 297 297 296 295 295 296 294 295 291
310 309 307 307 307 307 307 308 308 309 309 323 313 312 314 312 311 309 303 305 303 303 305 303 304 305 305 302 300 300 301 300 299 303 302 302 295 295 292 296 295 293 295 296 296 296 296
310 308 307 307 307 307 307 308 308 309 311 322 321 320 317 303 309 307 306 305 305 307 306 307 307 305 302 304 307 308 308 306 304 302 300 299 298 293 289 295 293 289 294 295 296 297 297
309 307 306 309 308 307 309 308 308 308 310 325 321 320 314 306 308 307 306 307 306 306 305 307 308 305 308 312 310 308 306 305 305 304 305 298 296 294 290 289 284 296 301 299 297 298 299
309 308 309 311 310 310 309 308 307 308 310 323 321 319 313 296 309 306 307 307 307 308 307 307 307 310 314 309 303 295 294 291 295 300 301 303 298 290 287 288 291 295 297 296 295 294 300
308 309 310 310 310 309 309 308 307 308 310 323 320 321 318 300 307 309 308 309 306 306 306 305 310 313 312 307 299 289 291 292 293 294 299 299 300 296 290 284 283 294 299 301 301 290 301
307 308 309 309 309 309 309 308 307 308 309 323 322 323 319 313 310 311 308 308 311 309 306 307 307 306 311 300 292 293 294 296 291 289 286 289 290 290 288 287 290 298 300 302 288 292 302
307 307 308 308 309 309 309 308 307 307 308 319 321 323 320 312 311 312 311 310 310 310 306 309 306 307 306 292 293 296 291 296 294 296 293 291 289 286 290 285 283 301 299 293 299 304 302
306 306 307 307 308 308 309 309 308 307 308 311 320 322 322 317 314 318 316 317 315 314 312 311 307 307 308 303 298 299 292 290 294 291 299 292 296 294 294 294 302 303 301 304 305 303 300

GFSGBSN_sfc_thetae_018.txt.gz
Theta_e
316 318 318 318 318 319 320 319 318 317 316 316 316 318 318 318 318 316 316 315 315 315 315 315 316 318 320 316 311 319 325 328 321 321 316 313 310 309 304 305 305 303 303 304 305 305 305
317 318 317 317 318 319 319 319 317 316 315 317 317 317 317 317 317 316 316 315 315 315 314 315 318 318 319 308 318 320 319 319 320 317 314 314 311 311 306 305 305 306 305 304 305 305 305
317 317 317 318 319 319 318 317 316 316 317 317 317 316 316 316 317 316 315 316 315 314 314 316 318 320 318 312 319 320 319 317 318 318 314 316 315 310 309 306 309 308 303 305 306 306 305
317 316 316 317 318 318 318 317 317 317 317 317 317 316 316 316 316 315 314 314 313 314 316 318 318 321 313 319 320 317 318 316 318 319 317 317 316 314 311 311 307 304 305 300 305 307 307
316 316 315 318 318 318 318 318 317 316 316 316 317 316 315 315 315 316 315 315 315 316 317 318 319 321 311 318 313 316 317 313 316 317 318 316 315 310 309 303 301 303 297 300 302 307 307
316 315 315 317 318 318 318 318 316 316 316 315 316 316 316 315 315 314 315 315 316 315 317 322 322 314 313 309 313 314 317 316 314 314 311 311 310 305 305 302 294 296 298 299 299 304 303
315 314 313 316 318 318 318 318 316 315 315 315 316 316 316 315 315 314 313 317 314 313 317 310 309 309 309 312 314 313 315 314 314 312 305 309 303 301 303 303 302 301 299 298 302 304 301
315 314 312 315 317 317 317 317 316 315 315 315 315 316 315 315 315 314 317 318 318 318 307 312 311 311 312 314 307 311 316 310 308 304 307 303 300 304 305 304 302 301 299 299 302 304 301
314 313 312 315 316 317 316 316 315 315 315 315 315 316 315 314 314 317 322 323 328 328 307 307 311 309 310 314 308 308 313 310 306 304 303 301 302 305 303 302 301 301 299 300 299 302 304
315 313 312 314 316 316 315 315 314 315 315 315 315 316 314 313 315 325 322 325 331 330 301 300 305 308 311 312 306 313 314 310 306 302 303 303 305 303 302 301 302 298 304 302 300 299 294
315 312 313 314 315 314 314 314 314 314 314 315 315 316 313 312 324 320 324 330 333 330 292 303 305 315 311 308 308 308 314 310 304 303 303 301 302 302 301 302 303 300 304 302 301 299 298
314 312 313 314 314 314 313 313 312 313 314 315 316 316 313 318 328 327 331 333 330 307 292 300 306 305 305 307 307 310 308 313 311 304 305 304 307 306 304 305 304 305 304 303 302 300 294
313 312 313 314 314 314 313 313 312 312 314 316 315 314 316 329 323 333 336 325 300 297 303 299 301 305 304 303 305 306 305 304 302 298 298 302 303 306 306 303 306 305 301 295 293 294 292
313 313 313 314 314 314 313 312 311 312 313 316 316 316 323 330 333 336 329 310 296 300 300 305 304 304 301 304 303 304 304 301 305 304 300 297 295 302 306 303 300 301 300 295 286 288 291
313 313 313 313 314 313 312 311 309 311 313 316 315 333 332 334 337 335 316 302 300 300 304 302 303 300 300 302 303 303 303 301 302 305 299 297 297 304 305 305 304 300 297 300 296 293 291
313 313 313 313 313 312 311 308 309 311 313 317 322 322 321 333 336 327 313 303 304 306 305 304 298 302 298 300 300 302 301 303 301 304 306 301 296 301 303 305 306 302 302 295 298 287 284
312 312 312 312 313 311 308 308 308 311 312 315 327 311 327 334 332 314 306 306 304 307 308 303 302 300 302 300 302 301 301 303 305 304 306 302 299 298 301 300 298 300 298 298 296 295 287
311 311 312 311 312 309 307 308 308 310 311 315 326 306 329 334 307 309 307 306 303 306 309 307 307 304 303 303 301 301 301 303 307 306 301 301 299 297 296 301 303 301 298 298 293 290 294
310 311 311 311 309 307 307 308 308 310 310 325 313 316 328 328 306 312 308 306 307 305 306 305 305 306 307 304 300 303 304 307 308 306 302 302 299 293 293 299 302 297 299 298 297 296 289
310 310 311 309 307 307 307 308 309 310 311 320 318 310 313 316 316 309 306 304 304 309 307 308 306 308 305 303 305 302 302 305 308 305 302 304 299 294 291 292 296 293 295 297 295 291 291
310 310 310 307 307 307 308 308 309 310 310 320 319 312 311 306 308 309 308 306 303 302 308 308 305 305 304 300 302 301 304 303 305 301 304 304 295 297 297 296 296 295 294 295 293 294 289
310 310 308 307 307 307 307 308 309 309 308 320 314 312 315 311 312 308 304 305 304 304 305 303 303 305 306 303 302 300 303 302 300 303 302 303 297 297 293 296 295 292 294 295 295 295 295
310 309 307 307 307 307 308 309 308 309 312 321 321 322 316 306 309 309 307 306 305 307 307 308 307 306 303 305 308 307 307 306 304 302 300 300 299 294 290 294 292 290 295 295 296 297 296
309 307 307 310 307 308 310 308 308 309 311 327 324 320 316 307 310 306 307 307 306 307 305 308 309 306 308 311 309 308 306 305 305 304 305 298 297 293 289 289 283 295 299 299 296 297 298
308 307 308 311 311 311 309 308 308 308 310 326 322 322 314 295 310 307 307 307 309 308 307 307 308 311 313 308 303 294 295 292 296 301 301 303 298 289 287 287 290 294 297 295 294 293 300
308 309 310 311 310 310 309 308 308 308 310 324 322 326 321 303 309 310 307 309 307 307 306 306 311 315 312 308 298 290 291 294 292 294 300 301 302 295 288 284 282 295 299 302 300 289 302
308 309 310 310 310 310 309 308 308 308 309 321 322 327 322 315 312 313 309 309 311 309 306 307 307 307 312 299 290 295 295 297 291 289 287 288 291 288 288 286 290 298 300 302 287 291 302
307 308 309 309 310 311 309 308 308 308 308 317 322 326 322 313 312 315 314 312 311 311 306 309 306 308 308 291 293 297 291 297 296 297 291 289 288 286 289 286 283 301 299 292 300 303 303
306 307 308 308 309 310 312 309 308 308 308 310 320 323 327 319 314 319 317 318 314 315 313 313 307 308 308 301 299 300 289 290 293 292 299 293 297 295 294 293 302 305 301 304 305 303 300

GFSGBSN_sfc_thetae_021.txt.gz
Theta_e
317 317 318 319 319 319 320 320 319 317 316 315 315 315 317 318 318 318 315 315 315 315 316 316 316 317 316 314 311 315 331 328 322 318 315 313 307 303 300 300 299 297 297 299 300 301 300
317 318 319 318 318 318 320 319 318 316 315 315 316 317 317 317 317 317 315 315 314 315 315 315 316 318 315 305 316 317 315 318 316 315 314 312 307 306 302 301 297 300 299 298 298 299 300
317 318 318 318 317 319 319 318 317 316 316 317 317 316 316 316 316 317 315 314 315 315 314 315 317 317 315 314 313 311 315 310 311 312 310 311 309 305 304 301 305 302 297 299 299 300 299
317 317 317 317 317 318 318 318 318 318 317 317 317 316 316 315 316 316 314 314 314 314 315 316 318 316 310 320 311 314 312 311 314 314 313 312 312 307 306 303 302 298 297 292 299 301 301
317 317 317 316 317 317 317 318 318 317 317 316 316 316 315 314 314 315 314 313 314 315 317 317 314 315 309 316 310 312 311 310 312 313 313 314 309 305 303 296 293 295 289 294 296 302 300
317 317 316 316 317 318 318 318 317 316 316 316 315 315 315 314 314 314 314 315 315 315 315 318 318 309 315 307 311 310 310 312 311 312 310 307 303 298 296 294 288 291 292 293 293 295 297
317 316 315 315 317 318 318 318 317 316 316 316 316 315 315 314 314 313 310 309 309 308 313 307 308 310 307 308 310 307 311 310 310 307 299 303 297 293 295 297 298 297 294 294 294 299 297
316 315 314 315 317 318 318 318 316 315 315 316 316 315 315 315 314 314 309 313 311 311 303 313 311 310 311 310 304 307 311 306 306 299 302 298 294 299 302 301 299 297 295 295 297 300 296
315 315 313 314 316 317 317 316 315 315 315 315 316 314 314 314 314 310 313 317 322 321 301 306 310 307 310 311 306 304 308 306 302 300 300 296 298 303 301 300 298 298 296 295 295 298 296
315 314 312 314 315 316 315 315 315 315 315 315 314 314 313 313 311 318 313 321 325 323 294 299 304 306 309 310 304 309 310 306 303 299 300 299 302 301 299 299 298 295 301 300 297 294 288
315 314 312 314 314 314 313 313 314 314 314 315 314 315 312 315 312 317 319 324 325 319 282 301 304 311 308 307 305 306 309 307 300 300 300 297 299 300 299 299 301 298 302 299 298 293 291
314 313 313 314 313 314 313 313 312 313 314 315 315 315 312 313 312 322 327 327 318 298 283 300 304 303 301 305 306 305 305 308 307 301 301 299 303 301 299 303 302 302 300 299 298 294 284
313 313 313 314 314 314 313 312 312 312 313 315 314 313 313 322 318 326 326 316 293 287 302 297 299 303 302 301 302 303 301 299 297 292 293 298 300 302 304 299 302 300 295 285 284 283 283
312 312 314 314 313 313 313 311 309 311 313 315 314 312 318 328 330 328 321 304 288 299 298 302 301 302 299 301 301 302 300 296 301 301 296 293 290 299 303 299 295 297 295 283 281 280 283
312 312 313 313 313 313 312 308 308 309 312 313 315 319 323 325 328 323 310 293 295 299 301 300 301 298 297 301 300 300 298 297 298 299 295 294 293 301 302 302 300 297 290 296 289 285 281
312 312 313 312 312 312 308 307 308 311 312 313 315 317 316 326 327 319 304 298 302 304 304 302 296 299 295 297 297 298 298 301 299 301 301 297 291 299 301 301 302 298 298 289 287 280 279
312 312 312 311 312 310 307 307 307 310 312 315 316 305 319 328 322 307 296 302 303 306 307 303 300 298 300 297 298 298 298 301 303 302 300 298 296 294 298 295 294 295 294 294 292 286 280
311 311 311 312 311 307 307 307 307 310 312 313 314 300 322 324 300 302 299 306 301 304 308 306 305 302 301 300 299 299 298 300 304 304 297 298 294 285 293 298 300 297 295 295 282 284 283
310 310 310 311 306 307 307 307 309 310 310 316 308 310 321 321 292 293 305 305 306 303 304 304 303 305 304 301 296 301 301 305 306 302 298 298 292 283 289 295 298 293 296 296 294 286 283
310 310 310 309 306 307 307 307 309 310 311 314 311 298 308 309 309 304 304 301 302 307 306 306 304 305 302 300 302 299 299 305 305 301 301 301 295 289 283 288 291 289 292 293 291 282 283
309 309 309 306 306 306 307 308 309 309 310 315 311 304 304 294 299 302 304 303 301 301 305 306 303 303 301 294 298 298 301 301 304 301 301 298 289 293 293 293 293 291 291 291 289 289 283
309 309 308 307 306 306 307 309 308 309 308 313 310 309 306 302 302 302 300 301 302 303 303 301 300 302 303 298 299 297 300 298 297 299 298 299 287 287 286 294 292 289 291 292 292 292 291
309 309 307 307 305 306 310 309 308 308 310 313 314 315 310 302 300 299 299 303 304 304 305 307 303 300 296 300 302 302 302 301 301 298 296 295 287 283 282 289 287 281 289 292 292 294 292
309 308 307 309 306 310 310 308 308 308 310 319 317 315 303 294 301 302 305 305 304 304 301 305 305 299 303 305 302 300 298 298 302 300 302 290 288 284 278 280 272 291 296 296 293 294 294
307 306 307 310 310 310 309 308 308 308 309 318 317 316 302 289 304 304 303 304 304 305 303 303 305 306 306 304 290 286 285 284 291 298 298 299 287 279 278 279 284 291 295 293 290 289 297
306 306 309 310 309 309 308 308 308 308 309 318 315 317 310 295 296 309 303 304 298 298 299 302 308 309 308 291 284 280 280 286 286 291 296 297 290 282 281 273 271 287 296 299 297 282 298
307 309 310 310 310 309 308 307 307 308 309 317 315 318 316 300 306 308 302 301 306 302 297 301 301 299 304 286 286 283 283 293 285 283 280 285 285 278 276 272 282 294 298 299 282 283 297
307 308 309 309 310 310 308 308 307 307 308 315 313 317 314 302 305 311 311 306 306 304 293 300 296 295 289 288 285 285 282 285 286 291 286 282 280 277 282 280 276 298 297 287 291 298 298
307 307 308 308 309 311 309 308 308 308 308 310 312 317 319 310 307 312 311 312 311 311 306 303 298 302 299 291 287 288 286 288 286 281 294 285 288 284 286 284 294 298 296 298 300 298 295

GFSGBSN_sfc_thetae_024.txt.gz
Theta_e
320 318 318 318 318 319 318 320 320 318 317 315 315 314 315 315 317 318 317 315 315 315 314 315 315 315 314 311 308 316 327 328 324 316 311 309 307 303 297 298 296 295 295 297 298 299 296
318 318 318 318 318 317 318 320 319 318 316 315 314 315 316 317 317 317 317 315 314 314 315 315 315 316 311 304 315 314 317 319 314 312 312 311 308 306 301 298 296 297 297 296 297 297 298
318 318 318 318 317 317 318 318 318 318 316 316 317 316 316 316 316 316 316 314 313 314 315 315 314 316 313 310 316 314 313 311 312 314 309 309 308 303 302 299 300 298 294 296 295 296 296
318 318 318 317 316 316 317 317 317 318 317 317 317 316 315 315 315 315 315 313 313 314 314 315 317 314 307 318 315 310 308 309 311 313 312 310 309 306 302 301 300 296 295 291 296 297 298
318 318 317 317 315 316 316 317 317 317 317 316 316 315 315 314 314 314 314 313 313 314 315 317 312 312 303 319 309 311 310 308 311 312 310 311 308 302 301 294 291 293 287 291 294 298 297
318 318 317 317 315 316 317 317 317 316 315 315 315 315 314 314 313 313 313 314 315 314 315 316 316 307 312 309 308 308 308 309 308 308 306 304 300 296 294 292 286 289 290 289 291 294 295
318 318 317 316 315 317 318 317 316 315 314 315 315 315 314 314 313 313 310 308 305 305 310 302 305 309 308 310 308 306 308 307 307 304 297 301 295 291 293 295 296 296 293 291 291 296 295
317 317 316 315 315 317 317 317 315 314 314 315 314 314 314 314 314 313 308 310 308 310 298 309 311 310 312 306 302 304 308 303 303 297 300 296 293 297 299 300 298 296 294 292 295 299 294
316 315 315 314 315 316 316 316 314 314 314 314 314 314 314 313 313 309 307 313 319 318 303 304 308 306 306 308 302 302 306 304 300 298 297 294 296 301 300 297 297 296 293 293 293 295 294
315 314 314 313 315 315 315 314 314 314 314 313 313 314 312 312 308 311 308 313 317 314 291 297 301 304 307 307 302 306 307 304 301 297 298 296 300 299 298 297 296 293 299 297 295 291 286
314 313 312 312 313 313 313 313 313 313 313 313 313 313 312 313 309 314 317 324 321 313 279 298 302 309 306 304 303 303 307 306 298 298 298 295 298 298 296 297 298 296 299 297 296 291 290
314 313 311 312 312 313 312 312 312 312 312 313 313 313 311 310 309 315 323 323 310 293 281 297 302 300 299 303 302 302 303 306 304 299 298 297 301 299 297 300 300 300 298 297 295 292 283
313 312 312 312 312 313 312 312 310 311 312 312 312 313 311 319 316 323 322 307 292 284 299 295 297 300 298 298 300 299 299 298 295 290 291 297 298 300 302 297 300 297 293 283 283 282 282
313 311 311 312 312 312 312 308 308 308 311 313 311 311 312 321 325 322 313 299 288 297 296 299 299 299 296 299 299 300 297 294 298 298 292 290 288 297 301 297 294 295 293 282 281 279 282
312 311 312 312 312 312 309 308 308 307 311 312 312 312 319 322 324 318 305 290 293 296 299 298 299 295 295 299 298 298 295 294 296 297 293 291 291 298 299 299 298 295 289 294 286 283 280
312 312 312 311 311 310 307 307 307 310 311 313 312 311 310 322 321 310 301 294 300 302 303 300 294 297 293 295 295 296 295 299 297 299 299 296 289 297 298 301 300 295 296 288 285 279 279
311 311 311 310 310 306 307 307 307 310 311 311 312 301 309 324 313 302 293 298 302 304 305 301 298 296 297 295 296 295 296 299 301 300 298 296 293 292 298 293 292 293 291 291 289 284 279
310 310 310 310 308 306 307 307 307 310 311 311 308 296 316 312 294 297 296 303 302 302 305 303 303 301 298 298 297 297 296 298 303 302 294 296 291 284 291 296 297 295 293 291 281 283 281
310 309 310 308 306 306 307 306 309 310 311 310 303 306 317 308 288 288 300 303 303 301 301 301 301 303 302 298 295 299 299 303 302 300 296 295 289 282 287 293 296 292 294 295 290 284 282
309 309 309 306 306 306 306 307 309 310 311 312 306 296 303 306 302 298 300 299 300 304 303 304 302 303 300 298 300 297 297 302 301 299 300 300 292 287 283 287 290 286 290 292 289 280 282
309 308 307 305 306 306 306 308 309 309 309 311 307 300 300 292 295 300 301 301 299 298 303 303 300 300 299 293 296 295 299 299 301 299 299 296 288 290 290 291 291 289 288 288 287 287 283
309 308 305 306 306 306 307 308 308 309 309 310 308 305 302 296 299 299 298 299 299 301 301 299 298 300 300 295 297 295 298 296 295 296 295 296 285 286 284 292 290 286 288 289 290 290 289
308 307 306 306 306 307 309 308 307 308 309 311 313 312 304 298 295 295 297 300 301 302 302 304 301 297 294 298 299 299 299 300 299 296 294 292 285 281 279 287 285 280 287 290 290 291 290
308 307 306 306 306 310 308 307 307 308 310 318 316 311 300 292 297 297 303 303 301 301 300 303 302 297 301 304 298 297 295 297 299 298 298 288 285 281 276 277 270 287 294 294 291 292 293
306 306 307 308 309 308 307 307 307 307 309 314 315 311 299 287 299 301 301 302 302 302 301 302 304 303 304 299 287 285 284 286 289 296 297 295 283 279 274 277 281 288 293 291 289 288 295
305 306 309 308 308 307 307 307 307 307 309 312 311 314 302 294 294 306 300 302 296 295 296 300 306 307 301 287 283 280 279 282 285 290 294 293 286 280 281 271 270 283 294 297 295 283 296
305 308 308 308 308 307 308 307 307 307 309 313 311 314 309 298 303 305 299 299 302 298 295 298 299 297 298 282 284 278 282 290 283 282 279 282 279 277 270 270 280 289 296 297 282 283 296
307 308 308 308 308 307 307 307 307 308 308 312 310 313 309 299 303 308 307 303 303 299 292 298 294 293 290 283 280 285 278 284 284 288 285 282 280 277 277 271 275 294 295 287 290 295 296
307 307 307 308 308 307 307 307 306 307 308 312 307 314 314 306 305 308 309 309 308 307 302 298 295 296 294 288 287 288 279 286 282 281 292 284 285 283 285 284 292 295 294 296 298 296 295

GFSGBSN_sfc_thetae_027.txt.gz
Theta_e
322 321 319 319 319 319 319 319 319 318 318 317 315 315 315 315 315 315 316 316 315 314 314 314 316 314 311 308 306 312 329 328 316 311 306 305 305 302 297 296 296 293 294 296 297 297 295
321 319 319 318 318 318 318 318 319 318 317 317 314 314 314 314 316 317 317 316 314 313 313 315 315 315 308 298 311 313 317 315 314 311 309 308 306 306 300 297 294 296 294 294 296 296 296
321 319 318 317 318 318 317 317 317 317 317 317 316 316 316 316 317 316 316 315 313 313 314 315 314 314 311 304 312 312 315 313 311 311 308 310 310 304 301 295 298 296 293 294 294 294 295
320 319 318 317 317 316 316 316 317 317 317 317 317 316 315 315 315 315 315 314 312 313 314 314 316 312 304 314 314 313 307 308 310 312 310 309 307 303 299 299 297 294 293 289 293 295 296
319 318 318 318 317 316 315 316 316 317 317 317 316 315 315 314 314 313 314 312 312 313 314 316 310 309 300 315 309 310 308 306 308 309 308 309 306 299 298 292 289 291 286 289 292 296 295
319 318 318 317 317 316 315 316 316 316 316 315 315 315 314 314 313 313 313 313 314 313 314 316 315 304 308 304 307 306 306 308 307 307 304 303 299 295 293 290 284 287 288 287 289 293 293
319 318 318 317 317 316 316 317 317 315 314 315 315 315 314 313 313 312 309 307 305 304 309 300 302 304 308 307 306 304 306 306 306 303 297 300 294 290 291 293 294 292 290 289 289 294 293
317 318 318 317 317 315 317 318 315 314 314 314 314 314 314 314 313 313 307 307 306 311 298 308 310 309 311 309 300 302 306 301 301 295 298 295 291 295 298 299 296 294 291 290 293 296 293
316 316 317 317 316 315 317 317 315 314 314 314 313 314 313 313 312 309 307 310 317 312 302 304 305 304 305 307 301 300 304 302 298 296 295 292 294 300 298 296 296 294 291 291 291 293 293
316 315 315 316 314 315 316 315 315 314 313 313 313 313 312 312 306 307 304 310 316 311 291 295 300 303 305 305 300 304 305 302 299 295 296 295 300 298 296 295 295 292 297 295 293 290 285
315 314 314 314 313 313 313 313 313 313 313 313 312 312 312 312 307 312 314 322 319 309 279 296 300 306 304 301 300 300 305 303 296 296 296 294 296 296 295 295 296 294 297 294 293 289 287
314 314 313 313 311 312 312 312 312 312 312 313 312 312 312 310 307 313 320 316 308 292 280 294 300 298 298 300 299 300 301 305 302 297 297 296 299 297 296 298 297 298 296 295 293 290 283
313 313 313 312 311 312 313 312 310 311 312 312 312 312 311 316 315 321 318 304 289 284 297 293 295 297 296 296 297 297 298 296 294 289 290 295 296 298 299 296 298 296 291 282 282 281 281
313 312 312 311 312 312 312 311 308 307 311 312 311 310 310 313 322 318 307 295 286 295 293 297 297 296 294 297 297 297 296 293 296 295 291 289 287 295 299 295 292 293 291 282 281 278 281
312 312 311 311 312 312 311 307 307 307 311 311 310 308 314 319 320 312 301 287 290 294 296 296 297 293 293 296 297 296 293 293 294 295 291 289 289 297 297 297 297 293 287 292 285 282 280
312 312 311 311 311 311 307 307 307 309 311 311 311 310 308 319 316 309 298 293 298 301 300 298 293 295 291 293 294 294 294 297 295 296 297 295 288 295 296 298 297 293 296 286 284 278 278
311 311 311 310 310 307 307 307 307 310 311 312 309 298 305 319 307 299 290 295 303 302 303 297 295 294 295 293 294 293 294 297 299 298 297 295 291 290 295 292 290 292 289 289 288 283 278
310 310 310 310 309 307 306 307 307 310 311 311 304 294 312 305 293 294 295 301 302 300 303 302 301 298 296 296 295 295 294 296 301 300 292 294 290 283 289 294 296 293 291 289 279 281 280
309 310 309 309 307 306 306 306 308 310 311 309 301 305 315 303 286 287 296 302 301 299 299 299 299 301 300 297 293 296 297 301 299 298 294 294 288 281 286 291 293 290 292 291 287 283 281
309 309 308 306 306 306 305 306 309 310 310 311 303 295 301 304 297 294 296 297 297 302 301 301 300 301 298 297 298 295 296 300 298 296 299 298 290 286 282 285 289 285 288 290 288 280 281
309 308 306 306 306 306 306 307 309 309 309 310 304 297 298 292 295 299 299 298 297 296 301 301 298 299 297 292 294 293 297 297 298 298 296 294 286 288 288 289 288 287 287 288 286 286 282
308 306 305 305 306 306 306 309 308 309 309 307 304 300 299 293 297 298 296 298 297 298 299 297 296 298 298 294 295 294 296 294 292 295 294 294 284 285 284 289 288 285 287 286 286 287 288
308 304 305 305 306 307 309 307 308 308 310 306 306 308 301 294 294 294 295 299 299 300 301 301 300 296 292 296 298 298 298 298 297 294 293 289 284 281 278 284 283 278 285 288 289 290 289
307 305 306 306 306 309 307 307 307 308 309 314 311 306 298 289 291 294 300 300 300 300 298 300 300 296 299 300 296 295 294 296 298 297 296 287 283 278 275 277 271 285 290 292 289 290 291
305 306 306 306 308 307 306 306 307 308 309 317 312 306 297 287 296 298 300 300 300 300 299 300 302 301 301 294 286 285 283 285 288 294 293 292 282 278 274 276 280 286 291 289 288 287 293
305 308 308 308 307 306 306 306 306 308 310 314 311 307 301 295 296 303 299 299 295 294 295 298 304 304 297 285 282 278 278 282 283 288 293 289 284 279 278 270 270 282 292 295 293 282 294
306 308 308 308 307 307 306 306 306 307 311 312 310 310 305 297 301 302 297 297 299 295 293 296 298 295 295 281 277 278 281 286 282 281 280 281 277 276 270 270 279 287 294 295 282 282 294
307 307 307 307 308 307 306 306 306 307 309 311 309 311 307 298 302 306 305 301 300 297 291 296 294 292 285 282 279 280 276 283 283 286 284 283 281 280 279 273 277 292 292 287 290 291 295
306 307 307 306 306 306 306 306 306 307 309 310 308 313 311 304 303 307 307 307 306 303 300 296 296 294 293 285 282 284 279 286 281 280 289 282 285 282 284 284 290 293 293 294 295 295 295